Starlink 32107

operational
NORAD ID: 59694 Int'l Des: 2024-086 Owner: SPXS Country: US Constellation: starlink
LEOCIRCULAR

关于 Starlink 32107

正在加载描述...

实时位置

正在加载3D地球...

即将过境

高度历史

Altitude vs Time

uPlot chart will show altitude changes over time

两行轨道根数

1 59694U 24086N 25305.62681510 -.00001572 00000-0 -47651-4 0 9991
2 59694 42.9991 63.3791 0001654 268.0823 91.9839 15.27554959 84523
Epoch: Nov 1, 2025 • Age: 22 hours

当前状态

高度 483.6 km
速度 7.63 km/s
星下点 24.79°N, 152.05°W
发射日期 May 8, 2024
运行时间 1.4 years
类型 internet

技术详情

分类 Payload
质量 730.00 kg
干质量 700.00 kg
总质量 730.00 kg
长度 0.30 m
直径 4.10 m
跨度 29.00 m
形状 Box + pan
制造商 SPXS
平台类型 Starlink V2M
阶段状态 In Orbit
所有者/国家 SPXS/US

大型星座

Loading constellations...